This demonstration page uses our WeatherBlox Daily Observations layout. Learn more.

Left ArrowRight Arrow

Hourly Observations for October 15, 2016

Temp ( °F °C ) Dew Point ( °F °C ) Humidity (%) Winds ( mph kmh ) Pressure ( in mb ) Visibility ( mi km ) Precip ( " mm )
12:53 am 00:53 Clear 69 20.6 65 18.3 87 87 SE 12 19 29.91 1013 9 14 0.00 0.00
1:53 am 01:53 Clear 68 20 64 17.8 87 87 SE 12 19 29.89 1012 10 16 0.00 0.00
2:53 am 02:53 Clear 67 19.4 63 17.2 87 87 SE 9 15 29.89 1012 10 16 0.00 0.00
3:53 am 03:53 Clear 66 18.9 63 17.2 90 90 SE 9 15 29.87 1011 10 16 0.00 0.00
4:53 am 04:53 Clear 64 17.8 62 16.7 93 93 SSE 7 11 29.86 1011 10 16 0.00 0.00
5:53 am 05:53 Clear 63 17.2 61 16.1 93 93 SE 6 9 29.86 1011 10 16 0.00 0.00
6:53 am 06:53 Clear 61 16.1 60 15.6 97 97 SSE 6 9 29.88 1012 10 16 0.00 0.00
7:53 am 07:53 Clear 61 16.1 59 15 93 93 ESE 3 6 29.89 1012 10 16 0.00 0.00
8:53 am 08:53 Sunny 64 17.8 61 16.1 90 90 ESE 3 6 29.90 1012 10 16 0.00 0.00
9:53 am 09:53 Sunny 69 20.6 62 16.7 78 78 S 9 15 29.91 1013 10 16 0.00 0.00
10:53 am 10:53 Sunny 76 24.4 61 16.1 60 60 SE 8 13 29.90 1013 10 16 0.00 0.00
11:53 am 11:53 Sunny 81 27.2 61 16.1 51 51 S 7 11 29.88 1012 10 16 0.00 0.00
12:53 pm 12:53 Sunny 86 30 60 15.6 42 42 S 9 15 29.86 1011 10 16 0.00 0.00
1:53 pm 13:53 Sunny 89 31.7 55 12.8 31 31 SW 9 15 29.83 1010 10 16 0.00 0.00
2:53 pm 14:53 Sunny 93 33.9 51 10.6 24 24 WSW 14 22 29.79 1009 10 16 0.00 0.00
3:53 pm 15:53 Sunny 94 34.4 40 4.4 15 15 WSW 20 31 29.77 1008 10 16 0.00 0.00
4:53 pm 16:53 Sunny 94 34.4 40 4.4 15 15 WSW 16 26 29.76 1008 10 16 0.00 0.00
5:53 pm 17:53 Sunny 93 34 41 5 16 16 WSW 13 20 29.62 1003 10 16 0.00 0.00
6:53 pm 18:53 Sunny 88 31.1 42 5.6 20 20 WSW 6 9 29.78 1008 10 16 0.00 0.00
7:53 pm 19:53 Clear 79 26.1 46 7.8 31 31 SW 8 13 29.79 1009 10 16 0.00 0.00
8:53 pm 20:53 Clear 73 22.8 46 7.8 38 38 SSW 8 13 29.81 1010 10 16 0.00 0.00
9:53 pm 21:53 Clear 71 21.7 45 7.2 39 39 WSW 8 13 29.82 1010 10 16 0.00 0.00
10:53 pm 22:53 Clear 69 20.6 45 7.2 42 42 ESE 6 9 29.83 1010 10 16 0.00 0.00
11:53 pm 23:53 Clear 69 20.6 59 15 70 70 SE 8 13 29.83 1010 10 16 0.00 0.00

Powered by AerisWeather